Flag for Trinidad and Tobago Weather past 2 weeks in San Fernando, Trinidad and Tobago

73 °F

Passing clouds.

Feels Like: 68 °F
Forecast: 78 / 87 °F
Wind: No wind

Location: Piarco International Airport - Trinidad

Current Time: Nov 26, 2015 at 5:54:40 AM

Latest Report: Nov 26, 2015 at 5:00 AM

Visibility: N/A

Pressure: 29.86 "Hg

Humidity: 100%

Dew point: 73 °F

Location of San FernandoLocation

Historic Weather in San Fernando — Graph


San Fernando temperature yesterday

Maximum temperature yesterday: 90 °F (at 12:00 PM)
Minimum temperature yesterday: 75 °F (at 12:00 AM)
Average temperature yesterday: 80 °F

Past Weeks' High & Low Weather Summary

High91 °F (Nov 13, 1:00 PM)100% (Nov 11, 4:00 AM)29.98 "Hg (Nov 11, 4:00 AM)
Low72 °F (Nov 21, 5:00 AM)55% (Nov 13, 3:00 PM)29.74 "Hg (Nov 20, 3:00 PM)
Average80 °F85%29.86 "Hg
* Reported Nov 11 4:00 AM — Nov 26 4:00 AM, San Fernando, Weather by CustomWeather, © 2015

Note: Actual official high and low records may vary slightly from our data, if they occured in-between our weather recording intervals... More about our weather records


San Fernando weather history for previous 24 hours

Time TempWeatherWind HumidityBarometerVisibility
4:00 AM
Thu, Nov 26
73 °FPassing clouds.No wind94%29.86 "HgN/A
3:00 AM73 °FPassing clouds.No wind100%29.86 "HgN/A
2:00 AM75 °FPassing clouds.No wind100%29.86 "HgN/A
1:00 AM75 °FPassing clouds.No wind100%29.89 "HgN/A
12:00 AM77 °FPassing clouds.No wind94%29.92 "HgN/A
11:00 PM
Wed, Nov 25
77 °FPassing clouds.No wind94%29.92 "HgN/A
10:00 PM77 °FPassing clouds.3 mph94%29.89 "HgN/A
9:00 PM77 °FPassing clouds.6 mph94%29.89 "HgN/A
8:00 PM79 °FPassing clouds.7 mph89%29.89 "HgN/A
7:00 PM79 °FScattered showers. Passing clouds.8 mph89%29.86 "HgN/A
6:00 PM81 °FPassing clouds.9 mph84%29.86 "HgN/A
5:00 PM82 °FScattered showers. Passing clouds.14 mph79%29.83 "HgN/A
4:00 PM84 °FScattered showers. Passing clouds.12 mph74%29.83 "HgN/A
3:00 PM88 °FScattered clouds.14 mph66%29.83 "HgN/A
1:00 PM88 °FScattered showers. Scattered clouds.16 mph66%29.86 "HgN/A
12:00 PM90 °FScattered showers. Scattered clouds.16 mph67%29.89 "HgN/A
11:00 AM84 °FScattered showers. Partly sunny.3 mph79%29.89 "HgN/A
9:00 AM86 °FScattered showers. Passing clouds.10 mph79%29.92 "HgN/A
8:00 AM79 °FScattered showers. Partly sunny.No wind89%29.89 "HgN/A
7:00 AM75 °FScattered showers. Scattered clouds.No wind100%29.89 "HgN/A
6:00 AM75 °FLight rain. Partly cloudy.No wind100%29.86 "Hg4 mi
5:00 AM77 °FLight rain. Partly cloudy.12 mph94%29.86 "Hg1 mi
Weather by CustomWeather, © 2015

See weather overviewHow to use our weather pages